Pinedale, WY

3:03 AM MDT on June 23, 2017 (GMT -0600)
Wenz

Weather History for KPNA - October, 2013

Change the Weather History Date:

Wednesday, October 16, 2013

  Actual Average (KBPI) Record (KBPI)
Temperature  
Mean Temperature 30 °F -  
Max Temperature 44 °F 53 °F 70 °F (2015)
Min Temperature 17 °F 20 °F 9 °F (1999)
Degree Days  
Heating Degree Days 34    
Moisture  
Dew Point 23 °F    
Average Humidity 80    
Maximum Humidity 100    
Minimum Humidity 39    
Precipitation  
Precipitation 0.00 in - - ()
Sea Level Pressure  
Sea Level Pressure 30.16 in    
Wind  
Wind Speed 6 mph (WNW)    
Max Wind Speed 20 mph    
Max Gust Speed 26 mph    
Visibility 9 miles    
Events Fog    
Averages and records for this station are not official NWS values.
T = Trace of Precipitation, MM = Missing Value Source: NWS Daily Summary

Daily Weather History Graph

Daily Weather History Graph

Search for Another Location

Airport or City:

Trip Planner

Search our weather history database for the weather conditions in past years. The results will help you decide how hot, cold, wet, or windy it might be!

Date:

Astronomy

Oct. 16, 2013 Rise Set
Actual Time 7:34 AM MDT 6:34 PM MDT
Civil Twilight 7:05 AM MDT 7:03 PM MDT
Nautical Twilight 6:32 AM MDT 7:35 PM MDT
Astronomical Twilight 5:59 AM MDT 8:08 PM MDT
Moon 5:18 PM MDT (10/16) 5:02 AM MDT (10/16)
Length of Visible Light 11h 57m
Length of Day
11h 00m
Waxing Gibbous, 94% of the Moon is Illuminated
Oct 16
Waxing Gibbous
Oct 18
Full
Oct 26
Last Quarter
Nov 3
New
Nov 9
First Quarter

Hourly Weather History & Observations

Time (MDT) Temp. Windchill Dew Point Humidity Pressure Visibility Wind Dir Wind Speed Gust Speed Precip Events Conditions
12:15 AM 26.6 °F - 26.6 °F 100% 30.22 in 10.0 mi Calm Calm - N/A   Scattered Clouds
12:35 AM 26.6 °F - 26.6 °F 100% 30.22 in 10.0 mi Calm Calm - N/A   Clear
12:55 AM 23.0 °F - 23.0 °F 100% 30.22 in 10.0 mi Calm Calm - N/A   Clear
1:15 AM 21.2 °F 14.9 °F 21.2 °F 100% 30.22 in 10.0 mi WNW 4.6 mph - N/A   Clear
1:35 AM 21.2 °F 16.4 °F 21.2 °F 100% 30.22 in 10.0 mi NW 3.5 mph - N/A   Clear
1:55 AM 21.2 °F 14.9 °F 21.2 °F 100% 30.22 in 10.0 mi NW 4.6 mph - N/A   Clear
2:15 AM 21.2 °F - 21.2 °F 100% 30.22 in 10.0 mi Calm Calm - N/A   Clear
2:35 AM 21.2 °F 16.4 °F 21.2 °F 100% 30.22 in 10.0 mi West 3.5 mph - N/A   Clear
2:55 AM 21.2 °F 16.4 °F 21.2 °F 100% 30.22 in 10.0 mi West 3.5 mph - N/A   Scattered Clouds
3:15 AM 21.2 °F 13.6 °F 21.2 °F 100% 30.21 in 10.0 mi WNW 5.8 mph - N/A   Scattered Clouds
3:35 AM 21.2 °F 13.6 °F 21.2 °F 100% 30.20 in 10.0 mi WNW 5.8 mph - N/A   Scattered Clouds
3:55 AM 21.2 °F 14.9 °F 19.4 °F 93% 30.19 in 10.0 mi WNW 4.6 mph - N/A   Clear
4:15 AM 21.2 °F 16.4 °F 19.4 °F 93% 30.19 in 10.0 mi WNW 3.5 mph - N/A   Clear
4:35 AM 21.2 °F - 21.2 °F 100% 30.19 in 10.0 mi Calm Calm - N/A   Mostly Cloudy
4:55 AM 23.0 °F 17.0 °F 23.0 °F 100% 30.19 in 10.0 mi NW 4.6 mph - N/A   Overcast
5:15 AM 23.0 °F 15.8 °F 23.0 °F 100% 30.18 in 10.0 mi WNW 5.8 mph - N/A   Overcast
5:35 AM 23.0 °F - 23.0 °F 100% 30.17 in 0.5 mi Calm Calm - N/A Fog Light Freezing Fog
5:55 AM 21.2 °F - 21.2 °F 100% 30.17 in 0.5 mi Calm Calm - N/A Fog Light Freezing Fog
6:15 AM 21.2 °F 16.4 °F 19.4 °F 93% 30.17 in 10.0 mi NW 3.5 mph - N/A   Scattered Clouds
6:35 AM 19.4 °F 12.8 °F 17.6 °F 93% 30.17 in 10.0 mi North 4.6 mph - N/A   Clear
6:55 AM 19.4 °F - 19.4 °F 100% 30.16 in 10.0 mi Calm Calm - N/A   Clear
7:15 AM 17.6 °F - 17.6 °F 100% 30.16 in 10.0 mi Calm Calm - N/A   Clear
7:35 AM 17.6 °F - 17.6 °F 100% 30.17 in 10.0 mi Calm Calm - N/A   Clear
7:55 AM 17.6 °F - 17.6 °F 100% 30.17 in 4.0 mi Calm Calm - N/A   Clear
8:15 AM 19.4 °F - 19.4 °F 100% 30.18 in 0.2 mi Calm Calm - N/A Fog Light Freezing Fog
8:35 AM 19.4 °F - 19.4 °F 100% 30.18 in 0.2 mi Calm Calm - N/A Fog Light Freezing Fog
8:55 AM 21.2 °F - 21.2 °F 100% 30.18 in 0.2 mi Calm Calm - N/A Fog Light Freezing Fog
9:15 AM 21.2 °F - 21.2 °F 100% 30.19 in 0.2 mi Calm Calm - N/A Fog Light Freezing Fog
9:35 AM 23.0 °F - 23.0 °F 100% 30.19 in 0.8 mi Calm Calm - N/A   Overcast
9:55 AM 24.8 °F - 24.8 °F 100% 30.19 in 1.2 mi Calm Calm - N/A   Overcast
10:15 AM 26.6 °F - 26.6 °F 100% 30.19 in 10.0 mi Calm Calm - N/A   Scattered Clouds
10:35 AM 28.4 °F - 28.4 °F 100% 30.19 in 10.0 mi Calm Calm - N/A   Scattered Clouds
10:55 AM 28.4 °F - 28.4 °F 100% 30.18 in 10.0 mi Calm Calm - N/A   Clear
11:15 AM 30.2 °F 25.4 °F 30.2 °F 100% 30.17 in 10.0 mi ESE 4.6 mph - N/A   Clear
11:35 AM 32.0 °F 27.5 °F 30.2 °F 93% 30.16 in 10.0 mi ESE 4.6 mph - N/A   Clear
11:55 AM 33.8 °F 24.8 °F 30.2 °F 87% 30.16 in 10.0 mi NW 12.7 mph 16.1 mph N/A   Clear
12:15 PM 41.0 °F 31.9 °F 24.8 °F 53% 30.16 in 10.0 mi NW 19.6 mph 25.3 mph N/A   Clear
12:35 PM 41.0 °F 32.2 °F 24.8 °F 53% 30.15 in 10.0 mi NW 18.4 mph - N/A   Clear
12:55 PM 42.8 °F 34.5 °F 24.8 °F 49% 30.14 in 10.0 mi WNW 18.4 mph 25.3 mph N/A   Clear
1:15 PM 42.8 °F 34.5 °F 23.0 °F 46% 30.13 in 10.0 mi WNW 18.4 mph 24.2 mph N/A   Clear
1:35 PM 42.8 °F 34.3 °F 21.2 °F 42% 30.13 in 10.0 mi NW 19.6 mph 25.3 mph N/A   Clear
1:55 PM 44.6 °F 36.6 °F 21.2 °F 39% 30.13 in 10.0 mi WNW 19.6 mph 25.3 mph N/A   Clear
2:15 PM 44.6 °F 36.6 °F 21.2 °F 39% 30.12 in 10.0 mi WNW 19.6 mph 26.5 mph N/A   Clear
2:35 PM 44.6 °F 37.2 °F 21.2 °F 39% 30.11 in 10.0 mi WNW 17.3 mph 26.5 mph N/A   Clear
2:55 PM 42.8 °F 35.4 °F 21.2 °F 42% 30.11 in 10.0 mi WNW 15.0 mph 23.0 mph N/A   Clear
3:15 PM 44.6 °F 36.6 °F 23.0 °F 43% 30.11 in 10.0 mi WNW 19.6 mph 23.0 mph N/A   Clear
3:35 PM 42.8 °F 34.3 °F 19.4 °F 39% 30.11 in 10.0 mi WNW 19.6 mph - N/A   Clear
3:55 PM 42.8 °F 34.8 °F 21.2 °F 42% 30.11 in 10.0 mi WNW 17.3 mph 23.0 mph N/A   Clear
4:15 PM 41.0 °F 33.1 °F 23.0 °F 49% 30.11 in 10.0 mi WNW 15.0 mph - N/A   Clear
4:35 PM 41.0 °F 32.2 °F 23.0 °F 49% 30.11 in 10.0 mi NW 18.4 mph 21.9 mph N/A   Clear
4:55 PM 41.0 °F 32.5 °F 24.8 °F 53% 30.11 in 10.0 mi WNW 17.3 mph 20.7 mph N/A   Clear
5:15 PM 41.0 °F 31.9 °F 24.8 °F 53% 30.11 in 10.0 mi WNW 19.6 mph 25.3 mph N/A   Scattered Clouds
5:35 PM 39.2 °F 29.8 °F 26.6 °F 61% 30.11 in 10.0 mi WNW 18.4 mph 23.0 mph N/A   Scattered Clouds
5:55 PM 37.4 °F 28.2 °F 24.8 °F 60% 30.11 in 10.0 mi WNW 16.1 mph 21.9 mph N/A   Overcast
6:15 PM 37.4 °F 28.5 °F 24.8 °F 60% 30.11 in 10.0 mi WNW 15.0 mph - N/A   Overcast
6:35 PM 37.4 °F 28.9 °F 24.8 °F 60% 30.11 in 10.0 mi WNW 13.8 mph - N/A   Overcast
6:55 PM 35.6 °F 27.5 °F 26.6 °F 70% 30.12 in 10.0 mi NW 11.5 mph - N/A   Scattered Clouds
7:35 PM 35.6 °F 25.9 °F 26.6 °F 70% 30.13 in 10.0 mi WNW 16.1 mph 21.9 mph N/A   Clear
7:55 PM 33.8 °F 24.3 °F 24.8 °F 70% 30.13 in 10.0 mi West 13.8 mph 20.7 mph N/A   Clear
8:15 PM 33.8 °F 23.5 °F 24.8 °F 70% 30.13 in 10.0 mi WNW 16.1 mph - N/A   Clear
8:35 PM 32.0 °F 23.6 °F 24.8 °F 75% 30.13 in 10.0 mi West 10.4 mph - N/A   Clear
8:55 PM 32.0 °F 26.4 °F 24.8 °F 75% 30.14 in 10.0 mi WNW 5.8 mph - N/A   Clear
9:15 PM 32.0 °F 27.5 °F 24.8 °F 75% 30.14 in 10.0 mi NW 4.6 mph - N/A   Clear
9:35 PM 30.2 °F 23.4 °F 24.8 °F 80% 30.14 in 10.0 mi WNW 6.9 mph - N/A   Mostly Cloudy
9:55 PM 30.2 °F - 24.8 °F 80% 30.15 in 10.0 mi Calm Calm - N/A   Scattered Clouds
10:15 PM 30.2 °F 22.6 °F 24.8 °F 80% 30.15 in 10.0 mi West 8.1 mph - N/A   Scattered Clouds
10:35 PM 30.2 °F 23.4 °F 24.8 °F 80% 30.15 in 10.0 mi WNW 6.9 mph - N/A   Mostly Cloudy
10:55 PM 30.2 °F 21.9 °F 24.8 °F 80% 30.14 in 10.0 mi WNW 9.2 mph - N/A   Scattered Clouds
11:15 PM 30.2 °F 21.9 °F 24.8 °F 80% 30.14 in 10.0 mi NW 9.2 mph - N/A   Clear
11:35 PM 30.2 °F 23.4 °F 24.8 °F 80% 30.14 in 10.0 mi WNW 6.9 mph - N/A   Scattered Clouds
11:55 PM 28.4 °F 21.2 °F 24.8 °F 86% 30.14 in 10.0 mi West 6.9 mph - N/A   Scattered Clouds